Regional Weather Roundup
Issued by NWS

Home | Current Version | Previous Version | Text Only | Print | Product List | Glossary Off
Versions: 1 2 3 4 5 6 7 8 9 10 11 12 13 14 15 16 17 18 19 20 21 22 23 24 25 26 27 28 29 30 31 32 33 34 35 36 37 38 39 40 41 42 43 44 45 46 47 48 49 50

684
ASUS43 KDTX 302310
RWRMI
MICHIGAN HOURLY REGIONAL WEATHER ROUNDUP
NATIONAL WEATHER SERVICE DETROIT/PONTIAC MI
700 PM EDT SUN APR 30 2017

NOTE: "FAIR" INDICATES FEW OR NO CLOUDS BELOW 12,000 FEET WITH NO
SIGNIFICANT WEATHER AND/OR OBSTRUCTION TO VISIBILITY.

MIZ047>049-052>055-059>063-066>070-074>076-081>083-010000-
SOUTHEAST LOWER MICHIGAN

CITY           SKY/WX    TMP DP  RH WIND       PRES   REMARKS
ADRIAN         CLOUDY    57  56  96 SE6       29.83F
ALMA           CLOUDY    42  41  97 NE15G21   29.86S
ANN ARBOR      CLOUDY    56  54  93 E6        29.82F
BAD AXE        LGT RAIN  39  38  95 NE9       29.89F WCI  33
CARO           CLOUDY    41  40  97 N7        29.85F
DETROIT CITY   LGT RAIN  54  50  86 NE6       29.84F
DETROIT        LGT RAIN  57  54  89 NE7       29.82F FOG
FLINT          CLOUDY    48  47  96 N8        29.84F FOG
GROSSE ILE     LGT RAIN  53  51  94 E3        29.83R
HILLSDALE      CLOUDY    59  55  88 SE6       29.79F FOG
HOWELL         LGT RAIN  55  53  91 CALM      29.81R

CITY           SKY/WX    TMP DP  RH WIND       PRES   REMARKS
JACKSON        PTSUNNY   58  56  93 SE9       29.80S
LAMBERTVILLE   HVY RAIN  52  51  97 E3        29.83F
LANSING        CLOUDY    45  42  89 N8        29.85R FOG
LAPEER         CLOUDY    49  48  97 CALM      29.83F FOG
MASON          CLOUDY    55  55  99 N3        29.81R FOG
MONROE         CLOUDY    54  52  95 E7        29.82F
MT. CLEMENS    LGT RAIN  54  54  98 CALM      29.85R FOG
PONTIAC        LGT RAIN  52  50  93 SE9       29.82S FOG
PORT HOPE        N/A     40  39  97 NE22      29.89F WCI  30
PORT HURON     LGT RAIN  52  48  87 NW3       29.87S
TRI CITIES     CLOUDY    42  41  96 NE18      29.88F
MIDLAND        CLOUDY    41  39  93 NE12      29.86F FOG
TROY           DRIZZLE   54  49  83 E5        29.85F
SAGINAW HB     CLOUDY    43  37  81 NE15G21   29.86F
$$
MIZ043>046-050>051-056>058-064>065-071>073-077>080-010000-
SOUTHWEST LOWER MICHIGAN

CITY           SKY/WX    TMP DP  RH WIND       PRES   REMARKS
BATTLE CREEK   CLOUDY    57  56  96 NE9       29.79R FOG
BENTON HARBOR  LGT RAIN  55  52  89 CALM      29.77S FOG
BIG RAPIDS     CLOUDY    40  37  90 E14       29.84F WCI  32
COLDWATER      CLOUDY    63  63 100 SE12      29.79R FOG
FREMONT        CLOUDY    44  42  93 E10       29.82S
HOLLAND        CLOUDY    45  43  93 E12       29.79F
GRAND RAPIDS   LGT RAIN  43  43 100 E12       29.83R FOG
IONIA          LGT RAIN  41  40  97 NE10      29.84R
KALAMAZOO      CLOUDY    56  53  90 CALM      29.79R FOG
LUDINGTON      CLOUDY    44  41  89 E15G23    29.82F
MARSHALL       CLOUDY    64  64  97 S3        29.78F
MOUNT PLEASANT CLOUDY    40  38  93 NE12G17   29.86F FOG     WCI  33
MUSKEGON       CLOUDY    46  43  89 E13       29.82S
SOUTH HAVEN    CLOUDY    50  49  98 NE5       29.76F FOG
$$
MIZ016>042-010000-
NORTHERN LOWER MICHIGAN

CITY           SKY/WX    TMP DP  RH WIND       PRES   REMARKS
ALPENA         LGT RAIN  37  36  96 NE16      30.01F FOG     WCI  28
BEAVER ISLAND  CLOUDY    37  36  94 E17G26    29.98F FOG     WCI  27
BELLAIRE       CLOUDY    38  34  84 E8G21     29.94F WCI  33
CADILLAC       LGT RAIN  38  37  94 E14G23    29.86F WCI  30
CHARLEVOIX     CLOUDY    38  36  92 E14G22    29.97F WCI  30
FRANKFORT      CLOUDY    42  37  82 E9G21     29.88S
GAYLORD        LGT RAIN  36  33  89 E13G23    29.93F FOG     WCI  27
GRAYLING       LGT RAIN  36  35  94 E17       29.93F WCI  26
HARBOR SPRINGS CLOUDY    37  35  95 E20G30    29.96F WCI  26
HOUGHTON LAKE  CLOUDY    38  35  89 NE15      29.90F WCI  29
MANISTEE       CLOUDY    44  39  82 E15       29.85F
OSCODA         MIX PCPN  39  37  94 NE17G23   29.95F WCI  30
PELLSTON       CLOUDY    37  36  96 E15G24    30.00F WCI  28
ROGERS CITY    MIX PCPN  37  35  94 E14       30.02F WCI  28
TRAVERSE CITY  CLOUDY    41  37  86 E9G18     29.90F
$$
MIZ007>008-015-010000-
EASTERN UPPER MICHIGAN

CITY           SKY/WX    TMP DP  RH WIND       PRES   REMARKS
KINROSS        CLOUDY    38  35  89 E9        30.03F WCI  31
MACKINAC ISLAN CLOUDY    36  36 100 E9G17     30.02S FOG     WCI  29
NEWBERRY       CLOUDY    39  35  84 E8        30.01S WCI  34
S. S. MARIE    CLOUDY    40  36  86 E6        30.02F
MUNISING         N/A     42  31  64 NE5       30.00S
$$
MIZ004>006-011>014-085-010000-
CENTRAL UPPER MICHIGAN

CITY           SKY/WX    TMP DP  RH WIND       PRES   REMARKS
MANISTIQUE     CLOUDY    39  36  89 E7        30.01S WCI  34
ESCANABA       CLOUDY    40  35  83 NE15G21   29.99F WCI  32
MENOMINEE      LGT RAIN  38  35  89 NE18G25   29.96F WCI  28
SAWYER-GWINN   CLOUDY    39  27  60 NE9       29.99F WCI  33
$$
MIZ001>003-009>011-084-010000-
WESTERN UPPER MICHIGAN

CITY           SKY/WX    TMP DP  RH WIND       PRES   REMARKS
IRON MOUNTAIN  CLOUDY    43  34  70 E8        29.95S
HOUGHTON       CLOUDY    43  18  36 E10       30.00F
COPPER HARBOR    N/A     40  32  73 CALM      30.03F
IRONWOOD       CLOUDY    42  25  50 NE9       29.96F
$$

ABBREVIATIONS USED IN REMARKS
   TC - TEMPERATURE IN CELSIUS
  WCI - WIND CHILL INDEX
   HX - HEAT INDEX
  VSB - VISIBILITY





USA.gov is the U.S. government's official web portal to all federal, state and local government web resources and services.